Minneapolis Crystal, MN

2:15 PM CDT on April 25, 2018 (GMT -0500)
Crystal

Weather History for KMIC - November, 2013

Change the Weather History Date:

Wednesday, November 13, 2013

  Actual Average Record
Temperature  
Mean Temperature 37 °F -  
Max Temperature 51 °F 41 °F 72 °F (1999)
Min Temperature 23 °F 26 °F 17 °F (2012)
Degree Days  
Heating Degree Days 28    
Moisture  
Dew Point 23 °F    
Average Humidity 55    
Maximum Humidity 65    
Minimum Humidity 43    
Precipitation  
Precipitation 0.00 in - - ()
Sea Level Pressure  
Sea Level Pressure 30.07 in    
Wind  
Wind Speed 9 mph (SSW)    
Max Wind Speed 18 mph    
Max Gust Speed 24 mph    
Visibility 10 miles    
Events      
Averages and records for this station are not official NWS values.
T = Trace of Precipitation, MM = Missing Value Source: NWS Daily Summary

Daily Weather History Graph

Daily Weather History Graph

Search for Another Location

Airport or City:

Astronomy

Nov. 13, 2013 Rise Set
Actual Time 7:08 AM CST 4:46 PM CST
Civil Twilight 6:37 AM CST 5:17 PM CST
Nautical Twilight 6:01 AM CST 5:53 PM CST
Astronomical Twilight 5:27 AM CST 6:27 PM CST
Moon 2:42 PM CST (11/13) 2:52 AM CST (11/13)
Length of Visible Light 10h 40m
Length of Day
9h 37m
Waxing Gibbous, 85% of the Moon is Illuminated
Nov 13
Waxing Gibbous
Nov 17
Full
Nov 25
Last Quarter
Dec 2
New
Dec 9
First Quarter

Hourly Weather History & Observations

Time (CST) Temp. Windchill Dew Point Humidity Pressure Visibility Wind Dir Wind Speed Gust Speed Precip Events Conditions
12:53 AM 23.0 °F 14.7 °F 12.0 °F 63% 30.44 in 10.0 mi SSW 6.9 mph - N/A   Clear
1:53 AM 23.0 °F 15.8 °F 12.0 °F 63% 30.40 in 10.0 mi South 5.8 mph - N/A   Clear
2:53 AM 23.0 °F 15.8 °F 10.9 °F 60% 30.36 in 10.0 mi South 5.8 mph - N/A   Clear
3:53 AM 23.0 °F 14.7 °F 12.0 °F 63% 30.32 in 10.0 mi South 6.9 mph - N/A   Clear
4:53 AM 24.1 °F 16.0 °F 12.0 °F 60% 30.28 in 10.0 mi South 6.9 mph - N/A   Clear
5:53 AM 26.1 °F 15.6 °F 12.9 °F 58% 30.23 in 10.0 mi South 11.5 mph 20.7 mph N/A   Clear
6:53 AM 27.0 °F 16.7 °F 15.1 °F 61% 30.20 in 10.0 mi South 11.5 mph - N/A   Clear
7:53 AM 28.9 °F 19.2 °F 16.0 °F 58% 30.18 in 10.0 mi South 11.5 mph - N/A   Clear
8:53 AM 32.0 °F 22.1 °F 17.1 °F 54% 30.15 in 10.0 mi South 13.8 mph 19.6 mph N/A   Clear
9:53 AM 36.0 °F 27.1 °F 19.0 °F 50% 30.12 in 10.0 mi South 13.8 mph - N/A   Clear
10:53 AM 39.9 °F 30.8 °F 21.0 °F 47% 30.06 in 10.0 mi South 18.4 mph 23.0 mph N/A   Clear
11:53 AM 44.1 °F 37.7 °F 23.0 °F 43% 30.03 in 10.0 mi South 12.7 mph 23.0 mph N/A   Clear
12:53 PM 46.0 °F 39.3 °F 25.0 °F 44% 29.99 in 10.0 mi SSW 16.1 mph 24.2 mph N/A   Clear
1:53 PM 48.9 °F - 27.0 °F 43% 29.96 in 10.0 mi SSW 15.0 mph 21.9 mph N/A   Clear
2:53 PM 51.1 °F - 28.9 °F 43% 29.93 in 10.0 mi SSW 10.4 mph 24.2 mph N/A   Clear
3:53 PM 51.1 °F - 30.9 °F 46% 29.91 in 10.0 mi South 11.5 mph - N/A   Clear
4:53 PM 48.9 °F - 32.0 °F 52% 29.93 in 10.0 mi SW 9.2 mph - N/A   Clear
5:53 PM 48.9 °F - 32.0 °F 52% 29.91 in 10.0 mi SSW 10.4 mph - N/A   Clear
6:53 PM 48.0 °F - 32.0 °F 54% 29.91 in 10.0 mi SSW 10.4 mph - N/A   Clear
7:53 PM 46.9 °F - 30.9 °F 54% 29.91 in 10.0 mi SW 11.5 mph - N/A   Clear
8:53 PM 45.0 °F 39.3 °F 30.0 °F 56% 29.90 in 10.0 mi SW 11.5 mph - N/A   Clear
9:53 PM 43.0 °F 38.8 °F 30.0 °F 60% 29.90 in 10.0 mi SW 6.9 mph - N/A   Clear
10:53 PM 42.1 °F 37.7 °F 30.0 °F 62% 29.88 in 10.0 mi SW 6.9 mph - N/A   Clear
11:53 PM 39.9 °F 37.8 °F 28.9 °F 65% 29.88 in 10.0 mi SSW 3.5 mph - N/A   Clear